Skip Page Navigation
NASA JPL Caltech
NASA Logo - Jet Propulsion Laboratory + View the NASA Portal
+ Center for Near-Earth Object Studies
JPL Home Earth Solar System Stars & Galaxies Technology
JPL Solar System Dynamics
BODIES ORBITS EPHEMERIDES TOOLS PHYSICAL DATA DISCOVERY FAQ SITE MAP
JPL Small-Body Database Browser
Search: [ help ]  
305895 (2009 FH29)
Classification: Main-belt Asteroid          SPK-ID: 2305895
Ephemeris | Orbit Diagram | Orbital Elements | Mission Design | Physical Parameters | Discovery Circumstances ]

[ show orbit diagram ]
Orbital Elements at Epoch 2459000.5 (2020-May-31.0) TDB
Reference: JPL 8 (heliocentric ecliptic J2000)
 Element Value Uncertainty (1-sigma)   Units 
e .1406148873956183 1.0136e-07  
a 2.560574616280394 2.4872e-08 au
q 2.200519704944047 2.4925e-07 au
i 9.691952563032602 6.2451e-06 deg
node 61.75839543937514 8.4119e-05 deg
peri 37.2331090379578 0.00011508 deg
M 327.6653047950299 8.6324e-05 deg
tp 2459134.922154356034
(2020-Oct-12.42215436)
0.00035994 TDB
period 1496.596001954392
4.10
2.1806e-05
5.97e-08
d
yr
n .2405458784667867 3.5048e-09 deg/d
Q 2.92062952761674 2.837e-08 au
  Orbit Determination Parameters
   # obs. used (total)      169  
   data-arc span      9656 days (26.44 yr)  
   first obs. used      1993-05-24  
   last obs. used      2019-10-31  
   planetary ephem.      DE431  
   SB-pert. ephem.      SB431-N16  
   condition code      0  
   norm. resid. RMS      .54297  
   source      ORB  
   producer      Otto Matic  
   solution date      2019-Nov-08 07:41:20  

Additional Information
 Earth MOID = 1.22545 au 
 Jupiter MOID = 2.29034 au 
 T_jup = 3.401 
[ show covariance matrix ]

Ephemeris | Orbit Diagram | Orbital Elements | Mission Design | Physical Parameters | Discovery Circumstances ]

Physical Parameter Table
Parameter Symbol Value Units Sigma Reference Notes
absolute magnitude H 16.7   n/a MPO494624  

305895 (2009 FH29)          Discovered 2009-Mar-22 by CSS at Catalina
Reference: 20111110/Numbers.arcLast Updated: 2011-11-14

Alternate Designations
 2009 FH29 = 1999 VW185 = 2003 UT164 
Ephemeris | Orbit Diagram | Orbital Elements | Mission Design | Physical Parameters | Discovery Circumstances ]
ABOUT SSD CREDITS/AWARDS PRIVACY/COPYRIGHT GLOSSARY LINKS
FirstGov 2020-Aug-06 06:44 UT
(server date/time)  
NASA Home Page
Site Manager:   Ryan S. Park
Webmaster  Alan B. Chamberlin